Regional Weather Roundup
Issued by NWS Newport/Morehead, NC

Current Version | Previous Version | Graphics & Text | Print | Product List | Glossary On
Versions: 1 2 3 4 5 6 7 8 9 10 11 12 13 14 15 16 17 18 19 20 21 22 23 24 25 26 27 28 29 30 31 32 33 34 35 36 37 38 39 40 41 42 43 44 45 46 47 48 49 50
000 ASUS42 KMHX 031832 RWRMHX WEATHER ROUNDUP FOR EASTERN NORTH CAROLINA NATIONAL WEATHER SERVICE NEWPORT/MOREHEAD CITY NC 100 PM EST TUE MAR 03 2015 NOTE: "FAIR" INDICATES FEW OR NO CLOUDS BELOW 12,000 FEET WITH NO SIGNIFICANT WEATHER AND/OR OBSTRUCTIONS TO VISIBILITY NCZ015>017-031-032-045>047-102-103-031900- NORTH COAST CITY SKY/WX TMP DP RH WIND PRES REMARKS EDENTON CLOUDY 44 33 64 E3 30.33F ELIZABETH CITY CLOUDY 41 31 67 NE6 30.34F KITTY HAWK CLOUDY 39 33 76 N7 30.32F MANTEO CLOUDY 43 32 65 N7 30.34F $$ NCZ045>047-081-094-103-104-031900- CENTRAL COAST CITY SKY/WX TMP DP RH WIND PRES REMARKS FRISCO LGT RAIN 43 38 82 N12G18 30.33F SWANQUARTER N/A 46 N/A N/A NE7G14 30.27F $$ NCZ095-097-098-100-101-031900- SOUTHERN COAST CITY SKY/WX TMP DP RH WIND PRES REMARKS BEAUFORT CLOUDY 44 37 76 NE7 30.31F CEDAR ISLAND N/A 41 N/A N/A NE12 30.33F JACKSONVILLE CLOUDY 44 35 70 NE6 30.30F PINEY ISLAND N/A N/A N/A N/A MISG 30.31F WILMINGTON CLOUDY 46 37 71 E6 30.29F $$ NCZ011>013-027>030-043-044-078>080-089-090>093-098-031900- COASTAL PLAIN CITY SKY/WX TMP DP RH WIND PRES REMARKS AHOSKIE CLOUDY 38 27 64 SE3 30.34F CLINTON DRIZZLE 38 36 91 NE5 30.32F ELIZABETHTOWN PTSUNNY 41 35 78 CALM 30.29F GOLDSBORO CLOUDY 41 39 93 E7 30.27F GREENVILLE RAIN 39 32 75 E5 30.32F HAVELOCK DRIZZLE 44 34 67 E9 30.32F KENANSVILLE CLOUDY 39 35 84 E3 30.32F FOG KINSTON CLOUDY 41 32 70 NE6 30.33F NEW BERN CLOUDY 45 33 63 E10 30.32F RICHLANDS CLOUDY 43 36 75 NE7 30.30F ROCKY MOUNT CLOUDY 40 25 55 E5 30.33F WASHINGTON DRIZZLE 40 31 69 N3 30.32F WHITEVILLE CLOUDY 44 34 66 NE6 30.28F $$ AMZ130-135-150-152-154-156-158-170-250-252-270-ANZ085-086-088-633-658-670-031900- MARINE OBSERVATIONS STATION/POSITION TIME TEMP WIND PRES WAVE SWELL AIR SEA DIR/SP/G HT/PER HT/PER (UTC) (F) (DEG/KT/KT) (MB) (FT/S) (FT/S) CHESAPEAKE LIGHT 1800 35 30/ 7/ 7 1027.9 64 E VA BEACH 1750 49 62 110/ 2/ 6 1027.5 3/ 6 3/ 6 DUCK 1800 35 35 20/ 9/ 10 1026.0 2 E DUCK 1711 35 N/A 3/ 6 10 NE DUCK 1722 37 N/A 4/ 6 OREGON INLET 1800 39 38 360/ 9/ 12 1026.8 HATTERAS CG 1800 41 42 30/ 8/ 12 1026.9 CAPE LOOKOUT 1800 44 30/ 14/ 16 1025.9 BEAUFORT LAB 1800 44 44 30/ 7/ 11 1025.2 27 SE WRIGHTSVLE NOT AVBL 5 SE WRIGHTSVLE NOT AVBL 225 S CAPE HAT 1750 65 72 120/ 14/ 17 1026.2 7/ 8 5/ 8 41 SE CHARLESTON 1750 68 69 110/ 12/ 14 1022.6 5/ 9 3/ 9 $$

USA.gov is the U.S. government's official web portal to all federal, state and local government web resources and services.